STARLINK-4520, 53400

Orbit data source: Space-Track

STARLINK-4520, 53400 is a payload satellite owned by SpaceX/Seattle (US) in LEO that was launched on Wed, 10 Aug 2022 UTC via an FALCON 9 launch vehicle from the Air Force Eastern Test Range (AFETR). Payload-class satellites include a variety of spacecraft equipped with specific instruments for various scientific and technological missions. These include communications satellites like Starlink; space stations such as the ISS; scientific satellites like the Hubble; Earth observation satellites from companies like Planet Labs, Umbra, and HawkEye 360; GPS; miniature CubeSats for education and research; and military/defense satellites.

Loading next visibility...
Identifier
53400, 2022-097N
Orbit
LEO
Country
Flag of USUS
Related business
Manufacturer
SpaceX/Seattle
Mission
Operational Commercial Communications
Bus & Motor
STARLINK, Unknown motor
Mass
297 kg wet, ~275 kg dry
Launch date (UTC)
2022-08-10 (4 years ago)
Launch vehicle
FALCON 9
Launch site
Air Force Eastern Test Range (AFETR)
Object type
Payload
Rocket body
Debris
Shape & HBR
Box + 1 Pan, 10.1 m
Radar Cross Section
13.562 m², Large (>1 m²)

Expand to show TLE details & history
Last TLE update: 3 days ago

TLE from 3 days ago
0 STARLINK-4520
1 53400U 22097N   26170.87665382  .00000093  00000-0  23946-4 0  9993
2 53400  53.1607  25.2744 0001367  94.6703 265.4445 15.08835179213942
Epoch: 2026-06-19T21:02Z
TLE epoch observation values (Epoch: 2026-06-19T21:02:22.890Z)
Latitude
0.00004°
Longitude
161.57972°
Altitude
540.725 km
Speed
7.593 km/s
True Right ascension
01h 41m 05s
True Declination
0° 00' 00"
Sunlit
Object was in daylight at epoch
Visualization orbit readout
Latitude
Unknown
Longitude
Unknown
Altitude
Unknown
Speed
Unknown
Apparent Right ascension
Unknown
Apparent Declination
Unknown
Sunlit
N/A
Visualization observer readout
Local Sidereal Time
21:46:56
Azimuth
Unknown
Elevation
Unknown
Doppler factor
Unknown
Orbital elements
Apogee altitude
540.958 km
Perigee altitude
539.066 km
Semi-major axis
6,918.149 km
Eccentricity
0.00014
Inclination
53.1607°
RAAN
25.2744°
Arg. of periapsis
94.6703°
True anomaly
265.42889°
Mean anomaly
265.4445°
Eccentric anomaly
265.43669°
Mean motion
3.77188 °/min
Orbital period
95.44 mins
BSTAR
0.000023946
Loading maneuver chart data...
Computing Atmospheric mass density...
Loading historical data...
Loading historical data...
Loading historical data...
Loading historical data...
Loading historical data...
Loading historical data...
Loading historical data...

Documentation

Showing up to 5 results
|